Kerrville, TX

5:13 AM CDT on May 20, 2018 (GMT -0500)
Kerrville Municipal-Schreiner

Weather History for KERV - October, 2012

Change the Weather History Date:

Sunday, October 7, 2012

  Actual Average (KHDO) Record (KHDO)
Temperature  
Mean Temperature 48 °F -  
Max Temperature 53 °F 81 °F 95 °F (2011)
Min Temperature 44 °F 59 °F 46 °F (1998)
Degree Days  
Heating Degree Days 16    
Moisture  
Dew Point 43 °F    
Average Humidity 81    
Maximum Humidity 93    
Minimum Humidity 67    
Precipitation  
Precipitation 0.00 in - - ()
Sea Level Pressure  
Sea Level Pressure 30.19 in    
Wind  
Wind Speed 10 mph (North)    
Max Wind Speed 14 mph    
Max Gust Speed 21 mph    
Visibility 10 miles    
Events Rain    
Averages and records for this station are not official NWS values.
T = Trace of Precipitation, MM = Missing Value Source: NWS Daily Summary

Daily Weather History Graph

Daily Weather History Graph

Search for Another Location

Airport or City:

Astronomy

Oct. 07, 2012 Rise Set
Actual Time 7:33 AM CDT 7:13 PM CDT
Civil Twilight 7:09 AM CDT 7:37 PM CDT
Nautical Twilight 6:41 AM CDT 8:05 PM CDT
Astronomical Twilight 6:14 AM CDT 8:33 PM CDT
Moon No Moon Rise 1:54 PM CDT (10/7)
Length of Visible Light 12h 28m
Length of Day
11h 40m
Waning Gibbous, 56% of the Moon is Illuminated
Oct 7
Waning Gibbous
Oct 8
Last Quarter
Oct 15
New
Oct 21
First Quarter
Oct 29
Full

Hourly Weather History & Observations

Time (CDT) Temp. Windchill Dew Point Humidity Pressure Visibility Wind Dir Wind Speed Gust Speed Precip Events Conditions
12:15 AM 53.6 °F - 48.2 °F 82% 30.16 in 10.0 mi North 11.5 mph - N/A   Overcast
12:35 AM 51.8 °F - 46.4 °F 82% 30.16 in 10.0 mi NNE 11.5 mph 18.4 mph N/A   Overcast
12:55 AM 50.0 °F - 46.4 °F 87% 30.17 in 10.0 mi NNE 11.5 mph - N/A   Overcast
1:15 AM 50.0 °F - 46.4 °F 87% 30.17 in 10.0 mi NNE 10.4 mph 18.4 mph N/A   Overcast
1:35 AM 50.0 °F - 46.4 °F 87% 30.16 in 10.0 mi North 11.5 mph 18.4 mph N/A   Overcast
1:55 AM 50.0 °F - 46.4 °F 87% 30.17 in 10.0 mi North 12.7 mph 17.3 mph N/A   Overcast
2:15 AM 50.0 °F - 46.4 °F 87% 30.17 in 10.0 mi NNE 10.4 mph 20.7 mph N/A   Overcast
2:35 AM 50.0 °F - 46.4 °F 87% 30.18 in 10.0 mi NNE 6.9 mph - N/A   Overcast
2:55 AM 48.2 °F - 44.6 °F 87% 30.17 in 10.0 mi NNE 10.4 mph 20.7 mph N/A   Overcast
3:15 AM 48.2 °F - 44.6 °F 87% 30.18 in 10.0 mi NNE 11.5 mph 18.4 mph N/A   Overcast
3:55 AM 48.2 °F - 44.6 °F 87% 30.18 in 10.0 mi NNE 8.1 mph 19.6 mph N/A   Overcast
4:15 AM 48.2 °F - 44.6 °F 87% 30.18 in 10.0 mi NNE 11.5 mph 16.1 mph N/A   Overcast
4:35 AM 48.2 °F - 44.6 °F 87% 30.18 in 10.0 mi North 9.2 mph - N/A   Overcast
4:55 AM 48.2 °F - 44.6 °F 87% 30.18 in 10.0 mi North 12.7 mph 19.6 mph N/A   Overcast
5:15 AM 48.2 °F - 44.6 °F 87% 30.19 in 10.0 mi North 10.4 mph - N/A   Overcast
5:35 AM 48.2 °F - 44.6 °F 87% 30.19 in 10.0 mi North 12.7 mph 17.3 mph N/A   Overcast
5:55 AM 46.4 °F 40.7 °F 44.6 °F 93% 30.18 in 10.0 mi North 12.7 mph 18.4 mph N/A   Overcast
6:15 AM 46.4 °F 41.1 °F 42.8 °F 87% 30.19 in 10.0 mi North 11.5 mph 18.4 mph N/A   Overcast
6:35 AM 46.4 °F 40.4 °F 42.8 °F 87% 30.20 in 10.0 mi North 13.8 mph 18.4 mph N/A   Overcast
6:55 AM 46.4 °F 41.1 °F 42.8 °F 87% 30.20 in 10.0 mi North 11.5 mph 17.3 mph N/A   Overcast
7:15 AM 46.4 °F 40.4 °F 42.8 °F 87% 30.21 in 10.0 mi North 13.8 mph 18.4 mph N/A   Overcast
7:35 AM 46.4 °F 41.1 °F 42.8 °F 87% 30.22 in 10.0 mi North 11.5 mph 17.3 mph N/A   Overcast
7:55 AM 44.6 °F 40.2 °F 42.8 °F 93% 30.22 in 10.0 mi North 8.1 mph - N/A Rain Rain
8:15 AM 44.6 °F 39.7 °F 42.8 °F 93% 30.22 in 10.0 mi North 9.2 mph - N/A   Light Drizzle
8:35 AM 44.6 °F 39.2 °F 41.0 °F 87% 30.22 in 10.0 mi North 10.4 mph 16.1 mph N/A   Overcast
8:55 AM 44.6 °F 39.2 °F 41.0 °F 87% 30.23 in 10.0 mi North 10.4 mph - N/A   Overcast
9:15 AM 44.6 °F 38.8 °F 41.0 °F 87% 30.23 in 10.0 mi NNE 11.5 mph - N/A   Overcast
9:35 AM 44.6 °F 39.2 °F 41.0 °F 87% 30.24 in 10.0 mi NNE 10.4 mph 18.4 mph N/A   Overcast
9:55 AM 44.6 °F 38.8 °F 41.0 °F 87% 30.24 in 10.0 mi NNE 11.5 mph 17.3 mph N/A   Overcast
10:15 AM 44.6 °F 38.8 °F 41.0 °F 87% 30.23 in 10.0 mi North 11.5 mph 17.3 mph N/A   Overcast
10:35 AM 44.6 °F 39.2 °F 41.0 °F 87% 30.24 in 10.0 mi North 10.4 mph - N/A   Overcast
10:55 AM 44.6 °F 38.4 °F 41.0 °F 87% 30.24 in 10.0 mi North 12.7 mph 18.4 mph N/A   Overcast
11:15 AM 46.4 °F 41.1 °F 41.0 °F 81% 30.23 in 10.0 mi NNE 11.5 mph 17.3 mph N/A   Overcast
11:35 AM 46.4 °F 41.9 °F 41.0 °F 81% 30.24 in 10.0 mi NNE 9.2 mph - N/A   Overcast
11:55 AM 48.2 °F - 42.8 °F 82% 30.23 in 10.0 mi NNE 11.5 mph 16.1 mph N/A   Overcast
12:15 PM 48.2 °F - 41.0 °F 76% 30.22 in 10.0 mi North 10.4 mph - N/A   Overcast
12:35 PM 48.2 °F - 41.0 °F 76% 30.22 in 10.0 mi NNE 8.1 mph - N/A   Overcast
12:55 PM 48.2 °F - 41.0 °F 76% 30.22 in 10.0 mi North 10.4 mph - N/A   Overcast
1:35 PM 50.0 °F - 42.8 °F 76% 30.20 in 10.0 mi NNE 9.2 mph - N/A   Overcast
1:55 PM 50.0 °F - 42.8 °F 76% 30.19 in 10.0 mi North 5.8 mph - N/A   Overcast
2:15 PM 50.0 °F - 42.8 °F 76% 30.18 in 10.0 mi NE 8.1 mph - N/A   Overcast
2:35 PM 50.0 °F - 42.8 °F 76% 30.17 in 10.0 mi North 8.1 mph - N/A   Overcast
2:55 PM 51.8 °F - 42.8 °F 71% 30.17 in 10.0 mi NNE 5.8 mph - N/A   Overcast
3:15 PM 51.8 °F - 42.8 °F 71% 30.16 in 10.0 mi North 6.9 mph - N/A   Overcast
3:35 PM 53.6 °F - 42.8 °F 67% 30.16 in 10.0 mi North 9.2 mph - N/A   Overcast
3:55 PM 51.8 °F - 42.8 °F 71% 30.16 in 10.0 mi North 10.4 mph - N/A   Overcast
4:15 PM 51.8 °F - 41.0 °F 67% 30.15 in 10.0 mi North 8.1 mph - N/A   Overcast
4:35 PM 53.6 °F - 42.8 °F 67% 30.15 in 10.0 mi North 6.9 mph - N/A   Overcast
4:55 PM 53.6 °F - 42.8 °F 67% 30.15 in 10.0 mi North 6.9 mph - N/A   Overcast
5:15 PM 51.8 °F - 41.0 °F 67% 30.15 in 10.0 mi North 9.2 mph - N/A   Overcast
5:35 PM 51.8 °F - 41.0 °F 67% 30.15 in 10.0 mi North 8.1 mph - N/A   Overcast
5:55 PM 51.8 °F - 42.8 °F 71% 30.15 in 10.0 mi North 8.1 mph - N/A   Overcast
6:15 PM 51.8 °F - 41.0 °F 67% 30.16 in 10.0 mi North 9.2 mph - N/A   Overcast
6:35 PM 51.8 °F - 41.0 °F 67% 30.17 in 10.0 mi North 8.1 mph - N/A   Overcast
6:55 PM 50.0 °F - 41.0 °F 71% 30.17 in 10.0 mi NNE 6.9 mph - N/A   Overcast
7:15 PM 50.0 °F - 41.0 °F 71% 30.17 in 10.0 mi NE 8.1 mph - N/A   Overcast
7:35 PM 50.0 °F - 41.0 °F 71% 30.17 in 10.0 mi North 6.9 mph - N/A   Overcast
7:55 PM 50.0 °F - 41.0 °F 71% 30.18 in 10.0 mi NNE 8.1 mph - N/A   Overcast
8:15 PM 50.0 °F - 42.8 °F 76% 30.19 in 10.0 mi North 4.6 mph - N/A   Light Drizzle
8:35 PM 50.0 °F - 44.6 °F 82% 30.20 in 10.0 mi North 6.9 mph - N/A   Overcast
8:55 PM 48.2 °F - 42.8 °F 82% 30.20 in 10.0 mi North 8.1 mph - N/A   Overcast
9:15 PM 48.2 °F - 42.8 °F 82% 30.20 in 10.0 mi North 6.9 mph - N/A   Overcast
9:35 PM 48.2 °F - 42.8 °F 82% 30.21 in 7.0 mi North 6.9 mph - N/A   Light Drizzle
9:55 PM 48.2 °F - 44.6 °F 87% 30.22 in 7.0 mi North 6.9 mph - N/A   Light Drizzle
10:15 PM 48.2 °F - 44.6 °F 87% 30.22 in 10.0 mi NNE 6.9 mph - N/A   Overcast
10:35 PM 48.2 °F - 44.6 °F 87% 30.22 in 10.0 mi North 5.8 mph - N/A   Light Drizzle
10:55 PM 46.4 °F 43.5 °F 42.8 °F 87% 30.22 in 10.0 mi North 5.8 mph - N/A   Overcast
11:15 PM 46.4 °F 42.4 °F 42.8 °F 87% 30.21 in 10.0 mi North 8.1 mph - N/A   Overcast
11:35 PM 46.4 °F 44.3 °F 42.8 °F 87% 30.21 in 10.0 mi North 4.6 mph - N/A   Overcast
11:55 PM 46.4 °F 43.5 °F 42.8 °F 87% 30.21 in 10.0 mi NNE 5.8 mph - N/A   Overcast